When you browse on this site, cookies collect data to enhance your experience and personalize the content and advertising you see.
Visit our Privacy Policy to learn more. By continuing to use the site, you agree to this use of cookies and data.
  • In Lithuania
  • List of Countries
  • For 7 days
  • Water Temperature
  • Weather Map
  • Weather Widgets
  • user-avatar
    Login

    Hourly Weather Bolshaya Volga

    Today, 24 January, Friday

    Time Temperature Precipitation Wind Pressure Humidity
    00:00 -7°C° 0 mm 3 mps 746 mmHg 82%
    01:00 -7°C° 0 mm 3 mps 745 mmHg 82%
    02:00 -7°C° 0 mm 3 mps 745 mmHg 82%
    03:00 -6°C° 0 mm 3 mps 744 mmHg 83%
    04:00 -6°C° 0 mm 3 mps 743 mmHg 83%
    05:00 -7°C° 0 mm 4 mps 743 mmHg 84%
    06:00 -5°C° 0.2 mm 4 mps 742 mmHg 87%
    07:00 -5°C° 0.2 mm 4 mps 741 mmHg 90%
    08:00 -5°C° 0.2 mm 5 mps 740 mmHg 93%
    09:00 -5°C° 0.3 mm 5 mps 740 mmHg 91%
    10:00 -4°C° 0.3 mm 6 mps 739 mmHg 90%
    11:00 -3°C° 0.3 mm 6 mps 738 mmHg 88%
    12:00 -2°C° 0 mm 5 mps 738 mmHg 89%
    13:00 -1°C° 0 mm 5 mps 737 mmHg 90%
    14:00 0°C° 0 mm 4 mps 737 mmHg 91%
    15:00 0°C° 0.5 mm 4 mps 736 mmHg 93%
    16:00 0°C° 0.5 mm 5 mps 736 mmHg 95%
    17:00 0°C° 0.5 mm 5 mps 735 mmHg 97%
    18:00 0°C° 0.2 mm 5 mps 735 mmHg 95%
    19:00 0°C° 0.2 mm 5 mps 735 mmHg 92%
    20:00 0°C° 0.2 mm 5 mps 736 mmHg 90%
    21:00 -1°C° 0 mm 4 mps 736 mmHg 88%
    22:00 -1°C° 0 mm 4 mps 736 mmHg 87%
    23:00 -1°C° 0 mm 3 mps 736 mmHg 85%

    Tomorrow, 25 January, Saturday

    Time Temperature Precipitation Wind Pressure Humidity
    00:00 -1°C° 0 mm 3 mps 736 mmHg 88%
    01:00 -2°C° 0 mm 3 mps 736 mmHg 90%
    02:00 -2°C° 0 mm 3 mps 735 mmHg 93%
    03:00 -2°C° 0 mm 3 mps 735 mmHg 92%
    04:00 -2°C° 0 mm 4 mps 735 mmHg 90%
    05:00 -2°C° 0 mm 4 mps 735 mmHg 89%
    06:00 -2°C° 0 mm 4 mps 735 mmHg 88%
    07:00 -2°C° 0 mm 4 mps 735 mmHg 86%
    08:00 -2°C° 0 mm 4 mps 735 mmHg 85%
    09:00 -1°C° 0 mm 4 mps 734 mmHg 84%
    10:00 -1°C° 0 mm 5 mps 733 mmHg 84%
    11:00 -1°C° 0 mm 5 mps 733 mmHg 83%
    12:00 -2°C° 0.3 mm 6 mps 733 mmHg 81%
    13:00 -2°C° 0.3 mm 6 mps 732 mmHg 79%
    14:00 -2°C° 0.3 mm 7 mps 732 mmHg 77%
    15:00 -3°C° 0.1 mm 6 mps 732 mmHg 75%
    16:00 -4°C° 0.1 mm 6 mps 733 mmHg 73%
    17:00 -4°C° 0.1 mm 5 mps 734 mmHg 72%
    18:00 -5°C° 0 mm 5 mps 734 mmHg 73%
    19:00 -5°C° 0 mm 6 mps 734 mmHg 75%
    20:00 -5°C° 0 mm 6 mps 735 mmHg 76%
    21:00 -5°C° 0.1 mm 6 mps 735 mmHg 77%
    22:00 -5°C° 0.1 mm 6 mps 736 mmHg 78%
    23:00 -5°C° 0.1 mm 6 mps 737 mmHg 79%

    Day after tomorrow, 26 January, Sunday

    Time Temperature Precipitation Wind Pressure Humidity
    00:00 -5°C° 0 mm 6 mps 738 mmHg 79%
    01:00 -5°C° 0 mm 6 mps 739 mmHg 78%
    02:00 -6°C° 0 mm 6 mps 740 mmHg 77%
    03:00 -6°C° 0 mm 5 mps 740 mmHg 77%
    04:00 -6°C° 0 mm 5 mps 741 mmHg 78%
    05:00 -6°C° 0 mm 5 mps 742 mmHg 79%
    06:00 -6°C° 0 mm 5 mps 743 mmHg 79%
    07:00 -7°C° 0 mm 4 mps 743 mmHg 80%
    08:00 -7°C° 0 mm 4 mps 744 mmHg 81%
    09:00 -5°C° 0 mm 4 mps 744 mmHg 80%
    10:00 -5°C° 0 mm 4 mps 745 mmHg 79%
    11:00 -4°C° 0 mm 4 mps 745 mmHg 78%
    12:00 -4°C° 0 mm 4 mps 745 mmHg 77%
    13:00 -3°C° 0 mm 4 mps 745 mmHg 76%
    14:00 -3°C° 0 mm 4 mps 745 mmHg 76%
    15:00 -3°C° 0.1 mm 4 mps 744 mmHg 82%
    16:00 -4°C° 0.1 mm 4 mps 744 mmHg 88%
    17:00 -4°C° 0.1 mm 4 mps 743 mmHg 94%
    18:00 -4°C° 0.3 mm 5 mps 743 mmHg 94%
    19:00 -2°C° 0.3 mm 5 mps 742 mmHg 94%
    20:00 0°C° 0.3 mm 5 mps 742 mmHg 94%
    21:00 -1°C° 0.1 mm 6 mps 741 mmHg 93%
    22:00 +1°C° 0.1 mm 6 mps 741 mmHg 92%
    23:00 +1°C° 0.1 mm 6 mps 741 mmHg 91%

    27 January, Monday

    Time Temperature Precipitation Wind Pressure Humidity
    00:00 +1°C° 0 mm 6 mps 741 mmHg 92%
    01:00 +1°C° 0 mm 6 mps 741 mmHg 92%
    02:00 +1°C° 0 mm 5 mps 742 mmHg 92%
    03:00 +1°C° 0 mm 5 mps 742 mmHg 93%
    04:00 +1°C° 0 mm 5 mps 743 mmHg 93%
    05:00 +1°C° 0 mm 5 mps 743 mmHg 93%
    06:00 +1°C° 0.1 mm 4 mps 743 mmHg 94%
    07:00 +1°C° 0.1 mm 4 mps 744 mmHg 95%
    08:00 +2°C° 0.1 mm 3 mps 744 mmHg 96%
    09:00 +1°C° 0.1 mm 3 mps 745 mmHg 96%
    10:00 +2°C° 0.1 mm 2 mps 745 mmHg 96%
    11:00 +1°C° 0.1 mm 2 mps 746 mmHg 97%
    12:00 +1°C° 0.3 mm 2 mps 746 mmHg 97%
    13:00 +1°C° 0.3 mm 1 mps 746 mmHg 96%
    14:00 +1°C° 0.3 mm 1 mps 746 mmHg 96%
    15:00 +1°C° 0.4 mm 1 mps 747 mmHg 96%
    16:00 -1°C° 0.4 mm 2 mps 747 mmHg 97%
    17:00 -2°C° 0.4 mm 2 mps 747 mmHg 97%
    18:00 -2°C° 0.5 mm 2 mps 747 mmHg 97%
    19:00 -2°C° 0.5 mm 2 mps 748 mmHg 97%
    20:00 -2°C° 0.5 mm 2 mps 748 mmHg 97%
    21:00 -2°C° 0.4 mm 2 mps 748 mmHg 97%
    22:00 -2°C° 0.4 mm 2 mps 748 mmHg 97%
    23:00 -2°C° 0.4 mm 2 mps 748 mmHg 97%

    28 January, Tuesday

    Time Temperature Precipitation Wind Pressure Humidity
    00:00 -2°C° 0.3 mm 2 mps 748 mmHg 97%
    01:00 -1°C° 0.3 mm 2 mps 747 mmHg 97%
    02:00 -1°C° 0.3 mm 2 mps 747 mmHg 97%
    03:00 -1°C° 0.2 mm 2 mps 747 mmHg 98%
    04:00 +1°C° 0.2 mm 1 mps 747 mmHg 98%
    05:00 +1°C° 0.2 mm 1 mps 747 mmHg 98%
    06:00 +1°C° 0.2 mm 1 mps 747 mmHg 98%
    07:00 +1°C° 0.2 mm 1 mps 748 mmHg 98%
    08:00 +1°C° 0.2 mm 1 mps 748 mmHg 98%
    09:00 +2°C° 0.1 mm 1 mps 748 mmHg 98%
    10:00 +2°C° 0.1 mm 1 mps 748 mmHg 98%
    11:00 +2°C° 0.1 mm 1 mps 748 mmHg 98%
    12:00 +2°C° 0.1 mm 1 mps 748 mmHg 98%
    13:00 +2°C° 0.1 mm 1 mps 748 mmHg 98%
    14:00 +2°C° 0.1 mm 1 mps 748 mmHg 99%
    15:00 +2°C° 0.1 mm 1 mps 748 mmHg 98%
    16:00 +2°C° 0.1 mm 1 mps 748 mmHg 98%
    17:00 +2°C° 0.1 mm 1 mps 748 mmHg 98%
    18:00 -1°C° 0 mm 2 mps 748 mmHg 98%
    19:00 -1°C° 0 mm 2 mps 749 mmHg 98%
    20:00 -1°C° 0 mm 2 mps 749 mmHg 98%
    21:00 -1°C° 0 mm 2 mps 749 mmHg 97%
    22:00 -1°C° 0 mm 2 mps 749 mmHg 97%
    23:00 -1°C° 0 mm 2 mps 749 mmHg 96%

    29 January, Wednesday

    Time Temperature Precipitation Wind Pressure Humidity
    00:00 -1°C° 0 mm 2 mps 749 mmHg 97%
    01:00 -1°C° 0 mm 2 mps 748 mmHg 97%
    02:00 -1°C° 0 mm 2 mps 748 mmHg 97%
    03:00 -1°C° 0 mm 3 mps 748 mmHg 97%
    04:00 -1°C° 0 mm 3 mps 748 mmHg 96%
    05:00 -1°C° 0 mm 3 mps 748 mmHg 96%
    06:00 -1°C° 0 mm 3 mps 748 mmHg 96%
    07:00 -1°C° 0 mm 3 mps 748 mmHg 96%
    08:00 -1°C° 0 mm 3 mps 748 mmHg 96%
    09:00 -1°C° 0 mm 3 mps 747 mmHg 96%
    10:00 0°C° 0 mm 3 mps 747 mmHg 96%
    11:00 -1°C° 0 mm 4 mps 747 mmHg 96%
    12:00 -1°C° 0 mm 4 mps 747 mmHg 94%
    13:00 -1°C° 0 mm 4 mps 747 mmHg 92%
    14:00 -1°C° 0 mm 4 mps 746 mmHg 90%
    15:00 -1°C° 0 mm 4 mps 746 mmHg 91%
    16:00 -1°C° 0 mm 4 mps 746 mmHg 91%
    17:00 -1°C° 0 mm 4 mps 746 mmHg 92%
    18:00 -1°C° 0 mm 4 mps 746 mmHg 91%
    19:00 -1°C° 0 mm 4 mps 745 mmHg 90%
    20:00 -1°C° 0 mm 4 mps 745 mmHg 89%
    21:00 -2°C° 0 mm 4 mps 745 mmHg 89%
    22:00 -2°C° 0 mm 4 mps 745 mmHg 89%
    23:00 -2°C° 0 mm 4 mps 744 mmHg 89%
    Show more